sat.trackr.live / text

‹ back to catalog

ONEWEB-0341

NORAD 49207 · 2021-083X

PAYLOAD ACTIVE UNKNOWN

§ Identity

Operator
Country
UK
Launch date
2021-09-14
Launch site
TYMSC
Launch vehicle
Mass (kg)
RCS (m²)

Purposes: comms

External: N2YO · Heavens-Above · Gunter

§ Orbital elements

Epoch: 2026-09-20T03:18:12.000096Z

Period
109.20 min
Inclination
87.9161°
Eccentricity
0.0001598
Mean motion
13.18687599 rev/d
Perigee alt
1,188.5 km
Apogee alt
1,190.9 km
Semi-major
7,567.9 km
B*
4.8028e-5
RAAN
316.5908°
Arg perigee
109.4924°
Mean anomaly
250.6380°
Rev number
24,250

§ Raw data

ONEWEB-03411 49207U 21083X   26263.13763889  .00000032  00000+0  48028-4 0  99902 49207  87.9161 316.5908 0001598 109.4924 250.6380 13.18687599242504

JSON: /api/v1/satellites/49207 · /tle

For live sub-satellite position, see the globe view (requires WebGL).

§ Visibility from observer

Set your observer location to see the next 7 days of passes ≥ 10°. The values pass through the URL so the page stays shareable.

No JS? Fill the form by hand. The geolocation button needs JavaScript.